Weather History for Rochelle, IL

Change the Weather History Date:

Thursday, December 6, 2012

  Actual Average (KRFD) Record (KRFD)
Temperature  
Mean Temperature 40 °F 28 °F  
Max Temperature 46 °F 36 °F 60 °F (1980)
Min Temperature 33 °F 21 °F -10 °F (1964)
Degree Days  
Heating Degree Days 26 36  
Month to date heating degree days 212  
Since 1 July heating degree days 1547  
Cooling Degree Days 0 0  
Month to date cooling degree days 0  
Year to date cooling degree days 820  
Moisture  
Dew Point 35 °F    
Average Humidity 75    
Maximum Humidity 89    
Minimum Humidity 65    
Precipitation  
Precipitation 0.00 in 0.08 in 0.83 in (1998)
Month to date precipitation 0.46  
Year to date precipitation 34.72  
Snow  
Snow 0.00 in 0.30 in 6.90 in (1994)
Month to date snowfall 1.8  
Since 1 July snowfall 3.6  
Snow Depth -    
Sea Level Pressure  
Sea Level Pressure 29.96 in    
Wind  
Wind Speed 10 mph (SSW)    
Max Wind Speed 18 mph    
Max Gust Speed 21 mph    
Visibility 10 miles    
Events Rain    
T = Trace of Precipitation, MM = Missing Value Source: NWS Daily Summary

Daily Weather History Graph

Daily Weather History Graph

Search for Another Location

Airport:

Trip Planner

Search our weather history database for the weather conditions in past years. The results will help you decide how hot, cold, wet, or windy it might be!

Date:

Astronomy

Dec. 06, 2012 Rise Set
Actual Time 7:09 AM CST 4:25 PM CST
Civil Twilight 6:38 AM CST 4:56 PM CST
Nautical Twilight 6:03 AM CST 5:31 PM CST
Astronomical Twilight 5:29 AM CST 6:05 PM CST
Moon No Moon Rise 11:57 AM CST (12/6)
Length of Visible Light 10h 17m
Length of Day
9h 15m
Waning Gibbous, 49% of the Moon is Illuminated
Dec 6
Waning Gibbous
Dec 13
New
Dec 19
First Quarter
Dec 28
Full
Jan 4
Last Quarter

Hourly Weather History & Observations

Time (CST) Temp. Windchill Dew Point Humidity Pressure Visibility Wind Dir Wind Speed Gust Speed Precip Events Conditions
7:35 AM 33.8 °F 25.8 °F 30.6 °F 88% 30.09 in 10.0 mi SSE 10.4 mph - N/A   Scattered Clouds
7:55 AM 33.8 °F 27.7 °F 30.9 °F 89% 30.09 in 10.0 mi South 6.9 mph - N/A   Scattered Clouds
8:15 AM 34.3 °F 28.4 °F 31.1 °F 88% 30.09 in 10.0 mi South 6.9 mph 10.4 mph N/A   Clear
8:35 AM 34.7 °F 26.9 °F 31.3 °F 87% 30.07 in 10.0 mi South 10.4 mph - N/A   Clear
8:55 AM 35.1 °F 27.4 °F 31.6 °F 87% 30.07 in 10.0 mi South 10.4 mph - N/A   Clear
9:15 AM 35.8 °F 28.8 °F 32.0 °F 86% 30.07 in 10.0 mi South 9.2 mph - N/A   Clear
9:35 AM 36.7 °F 28.0 °F 32.0 °F 83% 30.06 in 10.0 mi South 13.8 mph - N/A   Scattered Clouds
9:55 AM 36.9 °F 27.1 °F 32.0 °F 83% 30.05 in 10.0 mi SSE 17.3 mph 20.7 mph N/A   Clear
10:15 AM 37.6 °F 29.1 °F 32.2 °F 81% 30.05 in 10.0 mi South 13.8 mph - N/A   Clear
10:35 AM 38.5 °F 30.7 °F 32.9 °F 80% 30.04 in 10.0 mi South 12.7 mph - N/A   Clear
10:55 AM 39.9 °F 32.1 °F 33.1 °F 77% 30.03 in 10.0 mi South 13.8 mph - N/A   Clear
11:15 AM 41.4 °F 34.3 °F 33.8 °F 74% 30.01 in 10.0 mi South 12.7 mph - N/A   Clear
11:35 AM 42.8 °F 35.4 °F 33.8 °F 70% 30.00 in 10.0 mi SSW 15.0 mph - N/A   Clear
11:55 AM 43.7 °F 36.6 °F 34.2 °F 69% 29.98 in 10.0 mi South 15.0 mph - N/A   Clear
12:15 PM 44.2 °F 38.0 °F 34.2 °F 68% 29.96 in 10.0 mi South 12.7 mph - N/A   Scattered Clouds
12:35 PM 45.0 °F 38.2 °F 34.2 °F 66% 29.94 in 10.0 mi South 15.0 mph - N/A   Clear
12:55 PM 44.8 °F 37.1 °F 34.3 °F 67% 29.93 in 10.0 mi South 18.4 mph - N/A   Scattered Clouds
1:15 PM 44.6 °F 38.4 °F 34.7 °F 68% 29.93 in 10.0 mi South 12.7 mph - N/A   Clear
1:35 PM 45.5 °F 39.2 °F 35.1 °F 67% 29.93 in 10.0 mi South 13.8 mph - N/A   Clear
1:55 PM 46.0 °F 40.6 °F 35.2 °F 66% 29.93 in 10.0 mi South 11.5 mph - N/A   Scattered Clouds
2:15 PM 46.0 °F 40.6 °F 34.7 °F 65% 29.93 in 10.0 mi SSW 11.5 mph - N/A   Mostly Cloudy
2:35 PM 45.9 °F 40.8 °F 34.7 °F 65% 29.92 in 10.0 mi South 10.4 mph - N/A   Scattered Clouds
2:55 PM 45.7 °F 40.2 °F 35.1 °F 66% 29.91 in 10.0 mi SSE 11.5 mph - N/A   Scattered Clouds
3:15 PM 45.9 °F 40.4 °F 35.6 °F 67% 29.92 in 10.0 mi South 11.5 mph - N/A   Scattered Clouds
3:35 PM 45.9 °F 41.7 °F 35.6 °F 67% 29.92 in 10.0 mi South 8.1 mph - N/A   Scattered Clouds
3:55 PM 45.9 °F 42.3 °F 35.6 °F 67% 29.92 in 10.0 mi South 6.9 mph - N/A   Mostly Cloudy
4:15 PM 45.5 °F 41.8 °F 35.8 °F 69% 29.91 in 10.0 mi SSE 6.9 mph - N/A   Overcast
4:35 PM 44.8 °F 41.0 °F 36.0 °F 71% 29.92 in 10.0 mi South 6.9 mph - N/A   Light Drizzle
4:55 PM 44.4 °F 40.0 °F 36.0 °F 72% 29.91 in 10.0 mi South 8.1 mph - N/A   Mostly Cloudy
5:15 PM 44.1 °F 40.1 °F 36.0 °F 73% 29.91 in 10.0 mi South 6.9 mph - N/A   Mostly Cloudy
5:35 PM 43.7 °F 37.3 °F 36.1 °F 75% 29.89 in 10.0 mi SSE 12.7 mph - N/A   Mostly Cloudy
5:55 PM 44.6 °F 38.8 °F 36.5 °F 73% 29.89 in 10.0 mi SSE 11.5 mph - N/A   Mostly Cloudy
6:15 PM 45.5 °F 40.3 °F 36.5 °F 71% 29.89 in 10.0 mi South 10.4 mph - N/A   Overcast
6:35 PM 45.5 °F 41.8 °F 36.5 °F 71% 29.90 in 10.0 mi WSW 6.9 mph - N/A   Mostly Cloudy
6:55 PM 45.1 °F 40.3 °F 36.0 °F 70% 29.91 in 10.0 mi SW 9.2 mph - N/A   Scattered Clouds
7:15 PM 44.1 °F 41.5 °F 35.8 °F 73% - 10.0 mi WSW 4.6 mph - N/A   Scattered Clouds
7:35 PM 43.9 °F 41.3 °F 36.0 °F 74% 29.92 in 10.0 mi SW 4.6 mph - N/A   Overcast
7:55 PM 43.3 °F 40.7 °F 36.1 °F 76% 29.92 in 10.0 mi WSW 4.6 mph - N/A   Overcast
8:35 PM 43.7 °F 41.1 °F 36.5 °F 76% 29.92 in 10.0 mi WSW 4.6 mph - N/A   Overcast
8:55 PM 43.7 °F 40.3 °F 36.5 °F 76% 29.92 in 10.0 mi WSW 5.8 mph - N/A   Overcast
9:15 PM 43.7 °F 40.3 °F 36.7 °F 76% 29.92 in 10.0 mi WSW 5.8 mph - N/A   Overcast
9:35 PM 43.7 °F 40.3 °F 36.9 °F 77% 29.92 in 10.0 mi SW 5.8 mph - N/A   Overcast
9:55 PM 43.7 °F 40.3 °F 37.4 °F 78% 29.92 in 10.0 mi SW 5.8 mph - N/A   Overcast
10:15 PM 43.7 °F 41.1 °F 37.4 °F 78% 29.92 in 10.0 mi SW 4.6 mph - N/A   Overcast
10:35 PM 43.7 °F 40.3 °F 37.4 °F 78% 29.92 in 10.0 mi WSW 5.8 mph - N/A   Overcast
10:55 PM 43.7 °F 41.1 °F 37.4 °F 78% 29.92 in 10.0 mi SW 4.6 mph - N/A   Overcast
11:15 PM 43.2 °F 40.5 °F 37.6 °F 81% 29.92 in 10.0 mi SW 4.6 mph - N/A Rain Light Rain
11:35 PM 42.8 °F 39.3 °F 37.9 °F 83% 29.93 in 10.0 mi WSW 5.8 mph - N/A Rain Light Rain
11:55 PM 42.4 °F 38.8 °F 38.7 °F 86% 29.93 in 10.0 mi WSW 5.8 mph - N/A Rain Light Rain